Regional Weather Roundup
Issued by NWS Newport/Morehead, NC

Current Version | Previous Version | Graphics & Text | Print | Product List | Glossary Off
Versions: 1 2 3 4 5 6 7 8 9 10 11 12 13 14 15 16 17 18 19 20 21 22 23 24 25 26 27 28 29 30 31 32 33 34 35 36 37 38 39 40 41 42 43 44 45 46 47 48 49 50

000
ASUS42 KMHX 181510
RWRMHX
WEATHER ROUNDUP FOR EASTERN NORTH CAROLINA
NATIONAL WEATHER SERVICE NEWPORT/MOREHEAD CITY NC
1100 AM EDT FRI APR 18 2014

NOTE: "FAIR" INDICATES FEW OR NO CLOUDS BELOW 12,000 FEET
WITH NO SIGNIFICANT WEATHER AND/OR OBSTRUCTIONS TO VISIBILITY

NCZ015>017-031-032-045>047-102-103-181600-
NORTH COAST

CITY           SKY/WX    TMP DP  RH WIND       PRES   REMARKS
EDENTON        MOSUNNY   52  42  68 NE9       30.41F
ELIZABETH CITY MOSUNNY   51  40  65 N16       30.42F
KITTY HAWK     MOSUNNY   49  42  75 N10G22    30.40F
MANTEO         PTSUNNY   50  43  75 N17G24    30.42R

$$

NCZ045>047-081-094-103-104-181600-
CENTRAL COAST

CITY           SKY/WX    TMP DP  RH WIND       PRES   REMARKS
FRISCO         CLOUDY    51  46  83 N15G26    30.38R
SWANQUARTER      N/A     55 N/A N/A NE6G18    30.36S

$$

NCZ095-097-098-100-101-181600-
SOUTHERN COAST

CITY           SKY/WX    TMP DP  RH WIND       PRES   REMARKS
BEAUFORT       CLOUDY    58  47  66 N16       30.35F
CEDAR ISLAND     N/A     54 N/A N/A N16       30.41S
JACKSONVILLE   CLOUDY    55  44  66 N12       30.37
NEWPORT          N/A     57  48  72 N12G17      N/A
PINEY ISLAND   PTSUNNY   56  48  74 N14       30.38R
WILMINGTON     CLOUDY    59  43  55 N9        30.35F


$$

NCZ011>013-027>030-043-044-078>080-089-090>093-098-181600-
COASTAL PLAIN

CITY           SKY/WX    TMP DP  RH WIND       PRES   REMARKS
AHOSKIE        MOSUNNY   50  39  65 N8        30.43F
CLINTON        NOT AVBL
ELIZABETHTOWN  CLOUDY    52  41  65 N5        30.37F
GOLDSBORO      PTSUNNY   52  41  67 N12       30.39S
GREENVILLE     SUNNY     54  41  62 N7        30.40F
HAVELOCK       PTSUNNY   56  45  66 NE12      30.38F
KENANSVILLE    CLOUDY    51  40  66 N9        30.40S
KINSTON        NOT AVBL
NEW BERN       MOSUNNY   55  45  68 N9        30.39F
RICHLANDS      PTSUNNY   54  39  58 N9        30.39R
ROANOKE RAPIDS NOT AVBL
ROCKY MOUNT      N/A     52  39  61 N10       30.43F
WASHINGTON     SUNNY     53  45  76 N6        30.41S
WHITEVILLE     CLOUDY    52  41  66 N5        30.37R

$$

AMZ130-135-150-152-154-156-158-170-250-252-270-ANZ085-086-088-633-658-670-181600-
MARINE OBSERVATIONS

STATION/POSITION TIME  TEMP    WIND        PRES    WAVE   SWELL
                       AIR SEA DIR/SP/G            HT/PER HT/PER
                 (UTC) (F)     (DEG/KT/KT) (MB)    (FT/S) (FT/S)
CHESAPEAKE LIGHT 1400   44      20/ 17/ 18 1030.8
BUOY 44014       1500   49 49   10/ 17/ 19 1028.6    8/12   7/12
DUCK             1500   46 51   10/ 16/ 20 1029.0
2E DUCK          1500      50                N/A     7/11   3/11
OREGON INLET     1500   48 50  360/ 17/ 22 1029.5
BUOY 44095       1500      48                N/A     9/11   3/11
HATTERAS CG      1500   49 54   10/ 23/ 27 1028.6
DIAMOND BUOY     NOT AVBL
CAPE LOOKOUT     1400   53      20/ 19/ 21 1027.6
BEAUFORT LAB     1500   54 57   20/ 14/ 20 1027.3
30 SE NEW RIVER  1500   55 62   40/ 21/ 23 1027.1    7/10   3/10
5 SE WRIGHTSVILL 1400   49 59   40/ 12/ 16 1027.6
FRYING PAN BUOY  1500   58 64   40/ 21/ 25 1025.7    7/ 6
BUOY 41001       NOT AVBL
BUOY 41002       NOT AVBL
BUOY 41004       NOT AVBL

$$



USA.gov is the U.S. government's official web portal to all federal, state and local government web resources and services.